DLH1E EDDF-LEBL

Flight info

Callsign DLH1E
Flight time N/A
Altitude 41000
Route ANEKI2L/18 ANEKI Y163 HERBI Y164 MOPAN DCT LUTIX DCT BENOT DCT NEMOS DCT GEVEA/N0444F270 DCT INCUS DCT BALSI DCT RETNO DCT TUPOX DCT MTG DCT DIVKO DCT NILDU DCT BISBA
Aircraft A359/H-SDE2E3GHIJ3J4J5LM1ORWXY/LB1D1

Departure

Time N/A
Airport Frankfurt Main Airport (EDDF)

Arrival

Time 2026-04-30 20:27
Airport Josep Tarradellas Barcelona-El Prat Airport (LEBL)
Time Latitude Longitude Altitude Speed Heading
2026-04-30 18:57 49.65706 8.52519 15166 ft 361 kts 182°
2026-04-30 18:57 49.63263 8.52191 15823 ft 368 kts 182°
2026-04-30 18:57 49.60684 8.51847 16468 ft 376 kts 182°
2026-04-30 18:58 49.55531 8.51165 17830 ft 388 kts 182°
2026-04-30 18:58 49.52848 8.50811 18541 ft 393 kts 182°
2026-04-30 18:58 49.50080 8.50447 19195 ft 398 kts 182°
2026-04-30 18:59 49.44546 8.49720 20630 ft 406 kts 182°
2026-04-30 19:00 49.35965 8.48599 22709 ft 419 kts 182°
2026-04-30 19:00 49.33037 8.48217 23383 ft 424 kts 182°
2026-04-30 19:00 49.27108 8.47458 24632 ft 432 kts 182°
2026-04-30 19:01 49.21071 8.46676 25806 ft 438 kts 182°
2026-04-30 19:01 49.18013 8.46274 26375 ft 442 kts 181°
2026-04-30 19:02 49.11825 8.45465 27523 ft 449 kts 181°
2026-04-30 19:02 49.05554 8.44378 28646 ft 458 kts 188°
2026-04-30 19:03 48.99299 8.42355 29685 ft 466 kts 189°
2026-04-30 19:03 48.92929 8.40121 30686 ft 472 kts 190°
2026-04-30 19:04 48.86478 8.37849 31452 ft 480 kts 190°
2026-04-30 19:04 48.79921 8.35566 32208 ft 487 kts 190°
2026-04-30 19:05 48.73291 8.33216 32922 ft 494 kts 191°
2026-04-30 19:05 48.66570 8.30742 33657 ft 499 kts 191°
2026-04-30 19:06 48.59772 8.28247 34280 ft 505 kts 191°
2026-04-30 19:06 48.56354 8.27001 34553 ft 507 kts 191°
2026-04-30 19:06 48.49479 8.24506 35268 ft 507 kts 191°
2026-04-30 19:07 48.42631 8.22005 36009 ft 506 kts 191°
2026-04-30 19:07 48.39192 8.20748 36310 ft 507 kts 191°
2026-04-30 19:08 48.32388 8.18267 36990 ft 506 kts 192°
2026-04-30 19:08 48.25575 8.15645 37637 ft 507 kts 197°
2026-04-30 19:08 48.22292 8.13669 37933 ft 508 kts 203°
2026-04-30 19:09 48.15918 8.09108 38545 ft 507 kts 205°
2026-04-30 19:09 48.12758 8.06753 38852 ft 507 kts 206°
2026-04-30 19:09 48.09589 8.04382 39064 ft 508 kts 206°
2026-04-30 19:10 48.03273 7.99685 39550 ft 506 kts 206°
2026-04-30 19:10 47.96949 7.95029 39959 ft 506 kts 206°
2026-04-30 19:11 47.93789 7.92714 40123 ft 507 kts 206°
2026-04-30 19:11 47.87459 7.88088 40598 ft 504 kts 207°
2026-04-30 19:11 47.84298 7.85783 40712 ft 507 kts 207°
2026-04-30 19:12 47.81132 7.83476 40849 ft 506 kts 207°
2026-04-30 19:12 47.77971 7.81177 41171 ft 504 kts 207°
2026-04-30 19:12 47.74818 7.78885 41248 ft 506 kts 207°
2026-04-30 19:13 47.62098 7.69672 41237 ft 508 kts 207°
2026-04-30 19:14 47.55744 7.65089 41239 ft 509 kts 207°
2026-04-30 19:14 47.49436 7.60553 41238 ft 505 kts 207°
2026-04-30 19:15 47.43134 7.56033 41234 ft 502 kts 207°
2026-04-30 19:15 47.33709 7.49293 41219 ft 502 kts 207°
2026-04-30 19:16 47.27418 7.44811 41211 ft 499 kts 207°
2026-04-30 19:17 47.18209 7.37805 41209 ft 494 kts 216°
2026-04-30 19:17 47.13209 7.31005 41204 ft 490 kts 231°
2026-04-30 19:17 47.11023 7.27159 41206 ft 489 kts 233°
2026-04-30 19:18 47.04700 7.15419 41221 ft 489 kts 234°
2026-04-30 19:19 47.00479 7.07590 41209 ft 489 kts 233°
2026-04-30 19:19 46.94125 6.95979 41212 ft 489 kts 233°
2026-04-30 19:20 46.89445 6.88670 41215 ft 491 kts 223°
2026-04-30 19:21 46.81570 6.79086 41211 ft 492 kts 220°
2026-04-30 19:22 46.70961 6.66580 41207 ft 492 kts 220°
2026-04-30 19:23 46.54992 6.47751 41201 ft 492 kts 220°
2026-04-30 19:24 46.47010 6.38391 41192 ft 491 kts 220°
2026-04-30 19:25 46.33761 6.22938 41183 ft 489 kts 220°
2026-04-30 19:26 46.22227 6.12767 41183 ft 492 kts 196°
2026-04-30 19:27 46.12110 6.10111 41209 ft 493 kts 189°
2026-04-30 19:28 46.01921 6.07981 41183 ft 493 kts 189°
2026-04-30 19:29 45.88350 6.05017 41184 ft 493 kts 190°
2026-04-30 19:30 45.74781 6.02013 41180 ft 493 kts 190°
2026-04-30 19:31 45.61232 5.99033 41154 ft 492 kts 190°
2026-04-30 19:31 45.51114 5.96817 41160 ft 492 kts 190°
2026-04-30 19:32 45.44357 5.95260 41165 ft 491 kts 193°
2026-04-30 19:32 45.37691 5.93145 41175 ft 491 kts 195°
2026-04-30 19:33 45.31038 5.90921 41178 ft 492 kts 195°
2026-04-30 19:33 45.24401 5.88791 41189 ft 492 kts 194°
2026-04-30 19:34 45.17716 5.86709 41194 ft 492 kts 194°
2026-04-30 19:35 45.08765 5.83946 41200 ft 492 kts 194°
2026-04-30 19:35 45.02115 5.81895 41210 ft 492 kts 194°
2026-04-30 19:36 44.95418 5.79833 41213 ft 492 kts 194°
2026-04-30 19:36 44.85395 5.76756 41221 ft 492 kts 194°
2026-04-30 19:37 44.78713 5.74711 41216 ft 492 kts 195°
2026-04-30 19:37 44.72015 5.72666 41218 ft 491 kts 195°
2026-04-30 19:38 44.65333 5.70630 41222 ft 491 kts 195°
2026-04-30 19:38 44.58650 5.68599 41222 ft 490 kts 195°
2026-04-30 19:39 44.51995 5.66580 41221 ft 489 kts 195°
2026-04-30 19:39 44.45340 5.64566 41218 ft 489 kts 195°
2026-04-30 19:40 44.38740 5.62475 41222 ft 487 kts 199°
2026-04-30 19:40 44.32385 5.59307 41222 ft 485 kts 204°
2026-04-30 19:41 44.26090 5.55874 41221 ft 484 kts 205°
2026-04-30 19:41 44.19826 5.52419 41221 ft 484 kts 205°
2026-04-30 19:42 44.13565 5.48988 41220 ft 484 kts 205°
2026-04-30 19:42 44.07292 5.45573 41217 ft 484 kts 205°
2026-04-30 19:43 44.01016 5.42167 41214 ft 484 kts 205°
2026-04-30 19:44 43.91639 5.37086 41208 ft 484 kts 205°
2026-04-30 19:44 43.85365 5.33698 41195 ft 484 kts 205°
2026-04-30 19:45 43.79089 5.30317 41190 ft 483 kts 205°
2026-04-30 19:45 43.72837 5.26954 41186 ft 482 kts 205°
2026-04-30 19:46 43.66577 5.23596 41197 ft 480 kts 205°
2026-04-30 19:46 43.60352 5.20263 41179 ft 479 kts 205°
2026-04-30 19:47 43.54140 5.16943 41178 ft 479 kts 205°
2026-04-30 19:47 43.47929 5.13631 41187 ft 478 kts 205°
2026-04-30 19:48 43.41730 5.10331 41169 ft 477 kts 205°
2026-04-30 19:48 43.35967 5.06129 41167 ft 469 kts 217°
2026-04-30 19:49 43.30539 5.01141 41175 ft 469 kts 219°
2026-04-30 19:49 43.22510 4.93528 41178 ft 468 kts 219°
2026-04-30 19:50 43.17151 4.88478 41179 ft 468 kts 218°
2026-04-30 19:50 43.11777 4.83446 41166 ft 468 kts 219°
2026-04-30 19:51 43.06414 4.78386 41177 ft 466 kts 221°
2026-04-30 19:51 43.01481 4.72715 41176 ft 463 kts 225°
2026-04-30 19:52 42.96639 4.66876 41176 ft 463 kts 226°
2026-04-30 19:52 42.91824 4.61039 41160 ft 463 kts 226°
2026-04-30 19:53 42.87005 4.55220 41173 ft 463 kts 225°
2026-04-30 19:53 42.82211 4.49458 41172 ft 462 kts 225°
2026-04-30 19:54 42.77389 4.43678 41168 ft 462 kts 225°
2026-04-30 19:54 42.72567 4.37910 41167 ft 462 kts 225°
2026-04-30 19:55 42.67740 4.32149 41168 ft 462 kts 225°
2026-04-30 19:55 42.62908 4.26393 41165 ft 462 kts 225°
2026-04-30 19:56 42.58071 4.20644 41165 ft 462 kts 225°
2026-04-30 19:56 42.53226 4.14897 41144 ft 461 kts 225°
2026-04-30 19:57 42.48389 4.09174 41164 ft 461 kts 225°
2026-04-30 19:57 42.43580 4.03495 41159 ft 461 kts 225°
2026-04-30 19:58 42.38741 3.97792 41159 ft 461 kts 225°
2026-04-30 19:58 42.33902 3.92102 41139 ft 461 kts 225°
2026-04-30 19:59 42.29071 3.86433 41156 ft 460 kts 225°
2026-04-30 20:00 42.21817 3.77939 41153 ft 460 kts 224°
2026-04-30 20:00 42.16979 3.72295 41154 ft 460 kts 224°
2026-04-30 20:01 42.09770 3.63780 41140 ft 458 kts 230°
2026-04-30 20:01 42.07925 3.60401 41152 ft 450 kts 245°
2026-04-30 20:01 42.06582 3.56617 41145 ft 448 kts 248°
2026-04-30 20:02 42.02812 3.45048 41111 ft 446 kts 248°
2026-04-30 20:03 42.00535 3.38172 39598 ft 432 kts 248°
2026-04-30 20:03 41.99308 3.34480 38450 ft 431 kts 248°
2026-04-30 20:03 41.98086 3.30814 37179 ft 430 kts 248°
2026-04-30 20:03 41.96861 3.27145 35838 ft 431 kts 248°
2026-04-30 20:04 41.95634 3.23477 34709 ft 429 kts 248°
2026-04-30 20:04 41.94597 3.19765 33631 ft 421 kts 256°
2026-04-30 20:04 41.93888 3.15978 32516 ft 415 kts 258°
2026-04-30 20:05 41.92606 3.08526 30473 ft 404 kts 258°
2026-04-30 20:05 41.91976 3.04887 29422 ft 398 kts 258°
2026-04-30 20:05 41.90724 2.97707 27111 ft 392 kts 257°
2026-04-30 20:06 41.90103 2.94164 26076 ft 388 kts 257°
2026-04-30 20:06 41.89486 2.90655 25092 ft 384 kts 257°
2026-04-30 20:06 41.88882 2.87229 24204 ft 380 kts 257°
2026-04-30 20:06 41.88272 2.83776 23550 ft 379 kts 257°
2026-04-30 20:07 41.87666 2.80349 22945 ft 373 kts 257°
2026-04-30 20:07 41.87070 2.76990 21866 ft 369 kts 257°
2026-04-30 20:07 41.85885 2.70328 19801 ft 363 kts 257°
2026-04-30 20:08 41.85301 2.67051 18832 ft 360 kts 257°
2026-04-30 20:08 41.84721 2.63808 17815 ft 356 kts 257°
2026-04-30 20:08 41.84147 2.60598 16789 ft 351 kts 257°
2026-04-30 20:08 41.83579 2.57426 16007 ft 349 kts 257°
2026-04-30 20:09 41.83016 2.54292 15729 ft 344 kts 257°
2026-04-30 20:09 41.82455 2.51175 15474 ft 344 kts 257°
2026-04-30 20:09 41.81346 2.45022 14764 ft 336 kts 257°
2026-04-30 20:10 41.80257 2.39001 13809 ft 333 kts 257°
2026-04-30 20:10 41.79711 2.35989 13317 ft 331 kts 256°
2026-04-30 20:10 41.79166 2.32989 12847 ft 329 kts 256°
2026-04-30 20:11 41.78090 2.27075 11904 ft 324 kts 256°
2026-04-30 20:11 41.77527 2.24160 11450 ft 323 kts 253°
2026-04-30 20:11 41.76489 2.21552 11251 ft 311 kts 231°
2026-04-30 20:12 41.72944 2.18852 10973 ft 288 kts 197°
2026-04-30 20:12 41.71050 2.18143 10679 ft 285 kts 197°
2026-04-30 20:12 41.69114 2.17430 10328 ft 285 kts 196°
2026-04-30 20:13 41.67231 2.16726 10027 ft 283 kts 197°
2026-04-30 20:13 41.65295 2.15994 9836 ft 288 kts 197°
2026-04-30 20:13 41.63354 2.15265 9660 ft 289 kts 197°
2026-04-30 20:13 41.61448 2.14547 9467 ft 288 kts 196°
2026-04-30 20:14 41.59497 2.13812 9282 ft 287 kts 197°
2026-04-30 20:14 41.57599 2.13095 9090 ft 287 kts 196°
2026-04-30 20:14 41.55654 2.12361 8899 ft 286 kts 196°
2026-04-30 20:14 41.53768 2.11649 8722 ft 286 kts 196°
2026-04-30 20:15 41.51892 2.10773 8513 ft 285 kts 207°
2026-04-30 20:15 41.50214 2.09390 8347 ft 283 kts 215°
2026-04-30 20:15 41.48602 2.07878 8143 ft 283 kts 216°
2026-04-30 20:15 41.46996 2.06365 7927 ft 283 kts 215°
2026-04-30 20:16 41.45491 2.04707 7655 ft 281 kts 226°
2026-04-30 20:16 41.44222 2.02716 7401 ft 281 kts 232°
2026-04-30 20:16 41.43099 2.00592 7097 ft 281 kts 236°
2026-04-30 20:16 41.42032 1.98418 6766 ft 280 kts 237°
2026-04-30 20:17 41.40976 1.96235 6433 ft 279 kts 237°
2026-04-30 20:17 41.39932 1.94064 6070 ft 279 kts 237°
2026-04-30 20:17 41.38892 1.91877 5721 ft 279 kts 237°
2026-04-30 20:17 41.37860 1.89693 5379 ft 279 kts 237°
2026-04-30 20:18 41.36842 1.87531 5032 ft 278 kts 237°
2026-04-30 20:18 41.35806 1.85325 4678 ft 278 kts 237°
2026-04-30 20:18 41.34778 1.83178 4335 ft 278 kts 234°
2026-04-30 20:18 41.33550 1.81211 3983 ft 276 kts 224°
2026-04-30 20:19 41.32183 1.79413 3640 ft 275 kts 222°
2026-04-30 20:19 41.31250 1.78216 3419 ft 276 kts 221°
2026-04-30 20:19 41.29394 1.75904 3047 ft 273 kts 214°
2026-04-30 20:19 41.27659 1.75086 3007 ft 264 kts 178°
2026-04-30 20:20 41.25942 1.75691 3010 ft 253 kts 143°
2026-04-30 20:20 41.24764 1.77280 2998 ft 233 kts 125°
2026-04-30 20:20 41.23731 1.78851 2992 ft 217 kts 131°
2026-04-30 20:20 41.22701 1.80205 2991 ft 199 kts 127°
2026-04-30 20:21 41.21989 1.81651 3012 ft 176 kts 111°
2026-04-30 20:21 41.21674 1.83116 2988 ft 158 kts 89°
2026-04-30 20:21 41.21870 1.84523 3011 ft 155 kts 72°
2026-04-30 20:21 41.22256 1.85864 3012 ft 156 kts 69°
2026-04-30 20:22 41.22669 1.87182 3008 ft 156 kts 69°
2026-04-30 20:22 41.23091 1.88503 3014 ft 152 kts 68°
2026-04-30 20:22 41.23508 1.89748 2847 ft 144 kts 66°
2026-04-30 20:22 41.23918 1.90930 2663 ft 137 kts 67°
2026-04-30 20:23 41.24300 1.92047 2467 ft 128 kts 67°
2026-04-30 20:23 41.24543 1.92758 2343 ft 122 kts 67°
2026-04-30 20:23 41.24887 1.93763 2202 ft 121 kts 67°
2026-04-30 20:23 41.25235 1.94781 2041 ft 121 kts 66°
2026-04-30 20:24 41.25580 1.95792 1884 ft 120 kts 67°
2026-04-30 20:24 41.25920 1.96805 1732 ft 120 kts 67°
2026-04-30 20:24 41.26270 1.97847 1531 ft 126 kts 67°
2026-04-30 20:24 41.26640 1.98928 1346 ft 129 kts 66°
2026-04-30 20:25 41.27383 2.01005 993 ft 123 kts 68°
2026-04-30 20:25 41.27728 2.02058 815 ft 124 kts 69°
2026-04-30 20:26 41.28468 2.04203 515 ft 131 kts 65°
2026-04-30 20:26 41.29216 2.06397 167 ft 129 kts 66°
2026-04-30 20:26 41.29570 2.07453 37 ft 120 kts 66°
2026-04-30 20:27 41.30113 2.09034 25 ft 71 kts 65°
2026-04-30 20:27 41.30400 2.09865 25 ft 13 kts 68°
2026-04-30 20:28 41.30332 2.09989 26 ft 0 kts 153°